| time (UTC) | temp C | wind direction | speed KPH | gust KPH | rain 1hr cm | rain 24hr cm | rain mn cm | humidity % | barometer mb |
| 20260508083507 | 8 | 209 | 3.2 | 4.8 | 0.00 | 0.00 | 0.00 | 71 | 1013.4 |
| 20260508083003 | 8 | 223 | 8.0 | 8.0 | 0.00 | 0.00 | 0.00 | 71 | 1013.5 |
| 20260508082459 | 8 | 223 | 4.8 | 6.4 | 0.00 | 0.00 | 0.00 | 71 | 1013.5 |
| 20260508081957 | 8 | 267 | 3.2 | 4.8 | 0.00 | 0.00 | 0.00 | 71 | 1013.5 |
| 20260508081454 | 8 | 237 | 0.0 | 4.8 | 0.00 | 0.00 | 0.00 | 70 | 1013.5 |
| 20260508080950 | 8 | 221 | 1.6 | 4.8 | 0.00 | 0.00 | 0.00 | 70 | 1013.7 |
| 20260508080448 | 8 | 264 | 3.2 | 4.8 | 0.00 | 0.00 | 0.00 | 70 | 1013.7 |
| 20260508075945 | 8 | 280 | 3.2 | 11.3 | 0.00 | 0.00 | 0.00 | 70 | 1013.5 |
| 20260508075442 | 8 | 232 | 3.2 | 6.4 | 0.00 | 0.00 | 0.00 | 71 | 1013.5 |
| 20260508074939 | 8 | 227 | 6.4 | 8.0 | 0.00 | 0.00 | 0.00 | 71 | 1013.5 |
| 20260508074437 | 8 | 220 | 3.2 | 12.9 | 0.00 | 0.00 | 0.00 | 70 | 1013.5 |
| 20260508073934 | 8 | 212 | 8.0 | 16.1 | 0.00 | 0.00 | 0.00 | 68 | 1013.7 |
| 20260508073431 | 9 | 280 | 8.0 | 19.3 | 0.00 | 0.00 | 0.00 | 66 | 1013.7 |
| 20260508072928 | 9 | 154 | 12.9 | 33.8 | 0.00 | 0.00 | 0.00 | 62 | 1013.7 |
| 20260508072424 | 9 | 255 | 6.4 | 16.1 | 0.00 | 0.00 | 0.00 | 61 | 1013.9 |
| 20260508071921 | 8 | 239 | 11.3 | 16.1 | 0.00 | 0.00 | 0.00 | 61 | 1013.9 |
| 20260508071419 | 8 | 231 | 3.2 | 6.4 | 0.00 | 0.00 | 0.00 | 62 | 1013.8 |
| 20260508070917 | 8 | 237 | 3.2 | 11.3 | 0.00 | 0.00 | 0.00 | 64 | 1013.9 |
| 20260508070415 | 8 | 261 | 4.8 | 6.4 | 0.00 | 0.00 | 0.00 | 64 | 1013.8 |
| 20260508065912 | 8 | 271 | 3.2 | 8.0 | 0.00 | 0.00 | 0.00 | 65 | 1013.7 |
| 20260508065410 | 8 | 227 | 3.2 | 4.8 | 0.00 | 0.00 | 0.00 | 64 | 1013.7 |
| 20260508064908 | 8 | 230 | 1.6 | 1.6 | 0.00 | 0.00 | 0.00 | 64 | 1013.8 |
| 20260508064405 | 7 | 185 | 1.6 | 1.6 | 0.00 | 0.00 | 0.00 | 64 | 1013.5 |
| 20260508063903 | 7 | 186 | 0.0 | 1.6 | 0.00 | 0.00 | 0.00 | 64 | 1013.8 |
| 20260508063400 | 7 | 182 | 4.8 | 4.8 | 0.00 | 0.00 | 0.00 | 64 | 1013.5 |
| 20260508062857 | 7 | 232 | 1.6 | 1.6 | 0.00 | 0.00 | 0.00 | 65 | 1013.7 |
| 20260508062355 | 7 | 235 | 0.0 | 4.8 | 0.00 | 0.00 | 0.00 | 66 | 1014.0 |
| 20260508061852 | 7 | 235 | 1.6 | 4.8 | 0.00 | 0.00 | 0.00 | 66 | 1013.8 |
| 20260508061349 | 7 | 223 | 0.0 | 1.6 | 0.00 | 0.00 | 0.00 | 64 | 1013.8 |
| 20260508060845 | 7 | 222 | 1.6 | 1.6 | 0.00 | 0.00 | 0.00 | 64 | 1013.8 |
| 20260508060343 | 8 | 222 | 1.6 | 4.8 | 0.00 | 0.00 | 0.00 | 64 | 1013.8 |
| 20260508055838 | 8 | 225 | 1.6 | 1.6 | 0.00 | 0.00 | 0.00 | 62 | 1013.8 |
| 20260508055336 | 8 | 226 | 1.6 | 1.6 | 0.00 | 0.00 | 0.00 | 62 | 1013.8 |
| 20260508054832 | 8 | 235 | 1.6 | 1.6 | 0.00 | 0.00 | 0.00 | 63 | 1013.9 |
| 20260508054330 | 8 | 234 | 1.6 | 4.8 | 0.00 | 0.00 | 0.00 | 62 | 1014.0 |
| 20260508053826 | 8 | 220 | 1.6 | 1.6 | 0.00 | 0.00 | 0.00 | 62 | 1014.1 |
| 20260508053324 | 8 | 221 | 1.6 | 4.8 | 0.00 | 0.00 | 0.00 | 60 | 1014.2 |
| 20260508052821 | 8 | 214 | 0.0 | 1.6 | 0.00 | 0.00 | 0.00 | 62 | 1014.1 |
| 20260508052318 | 8 | 213 | 0.0 | 0.0 | 0.00 | 0.00 | 0.00 | 61 | 1014.2 |
| 20260508051815 | 8 | 213 | 0.0 | 0.0 | 0.00 | 0.00 | 0.00 | 62 | 1014.3 |
| 20260508051310 | 8 | 213 | 1.6 | 4.8 | 0.00 | 0.00 | 0.00 | 61 | 1014.4 |
| 20260508050807 | 8 | 218 | 1.6 | 1.6 | 0.00 | 0.00 | 0.00 | 61 | 1014.4 |
| 20260508050304 | 8 | 201 | 0.0 | 0.0 | 0.00 | 0.00 | 0.00 | 61 | 1014.3 |
| 20260508045759 | 8 | 274 | 0.0 | 1.6 | 0.00 | 0.00 | 0.00 | 62 | 1014.4 |
| 20260508045257 | 8 | 281 | 0.0 | 1.6 | 0.00 | 0.00 | 0.00 | 63 | 1014.3 |
| 20260508044755 | 8 | 219 | 4.8 | 6.4 | 0.00 | 0.00 | 0.00 | 62 | 1014.4 |
| 20260508044251 | 8 | 253 | 1.6 | 6.4 | 0.00 | 0.00 | 0.00 | 63 | 1014.4 |
| 20260508043747 | 8 | 261 | 0.0 | 1.6 | 0.00 | 0.00 | 0.00 | 63 | 1014.3 |
| 20260508043245 | 8 | 270 | 1.6 | 4.8 | 0.00 | 0.00 | 0.00 | 62 | 1014.2 |
| 20260508042741 | 8 | 219 | 4.8 | 8.0 | 0.00 | 0.00 | 0.00 | 62 | 1014.4 |
| 20260508042239 | 7 | 316 | 0.0 | 6.4 | 0.00 | 0.00 | 0.00 | 64 | 1014.4 |
| 20260508041735 | 7 | 291 | 1.6 | 4.8 | 0.00 | 0.00 | 0.00 | 64 | 1014.4 |
| 20260508041232 | 7 | 285 | 6.4 | 16.1 | 0.00 | 0.00 | 0.00 | 66 | 1014.2 |
| 20260508040728 | 6 | 224 | 4.8 | 8.0 | 0.00 | 0.00 | 0.00 | 72 | 1014.4 |
| 20260508040226 | 5 | 307 | 1.6 | 1.6 | 0.00 | 0.00 | 0.00 | 78 | 1014.2 |
| 20260508035723 | 5 | 308 | 1.6 | 1.6 | 0.00 | 0.00 | 0.00 | 80 | 1014.3 |
| 20260508035221 | 5 | 308 | 0.0 | 0.0 | 0.00 | 0.00 | 0.00 | 79 | 1014.4 |
| 20260508034717 | 5 | 308 | 0.0 | 0.0 | 0.00 | 0.00 | 0.00 | 77 | 1014.3 |
| 20260508034215 | 5 | 308 | 0.0 | 0.0 | 0.00 | 0.00 | 0.00 | 77 | 1014.3 |
| 20260508033711 | 4 | 307 | 3.2 | 1.6 | 0.00 | 0.00 | 0.00 | 79 | 1014.4 |
| 20260508033210 | 4 | 309 | 1.6 | 1.6 | 0.00 | 0.00 | 0.00 | 83 | 1014.2 |
| 20260508032707 | 4 | 309 | 0.0 | 0.0 | 0.00 | 0.00 | 0.00 | 82 | 1014.3 |
| 20260508032204 | 4 | 310 | 0.0 | 0.0 | 0.00 | 0.00 | 0.00 | 83 | 1014.2 |
| 20260508031701 | 4 | 310 | 0.0 | 0.0 | 0.00 | 0.00 | 0.00 | 83 | 1014.2 |
| 20260508031156 | 4 | 310 | 0.0 | 0.0 | 0.00 | 0.00 | 0.00 | 82 | 1014.2 |
| 20260508030653 | 4 | 310 | 0.0 | 0.0 | 0.00 | 0.00 | 0.00 | 80 | 1014.2 |
| 20260508030151 | 4 | 309 | 0.0 | 0.0 | 0.00 | 0.00 | 0.00 | 79 | 1014.1 |
| 20260508025647 | 4 | 309 | 0.0 | 0.0 | 0.00 | 0.00 | 0.00 | 76 | 1014.3 |
| 20260508025144 | 4 | 310 | 0.0 | 0.0 | 0.00 | 0.00 | 0.00 | 75 | 1014.2 |
| 20260508024640 | 5 | 309 | 0.0 | 0.0 | 0.00 | 0.00 | 0.00 | 74 | 1014.2 |
| 20260508024137 | 5 | 309 | 0.0 | 0.0 | 0.00 | 0.00 | 0.00 | 73 | 1014.3 |
| 20260508023633 | 5 | 309 | 0.0 | 0.0 | 0.00 | 0.00 | 0.00 | 73 | 1014.3 |
| 20260508023132 | 5 | 309 | 0.0 | 0.0 | 0.00 | 0.00 | 0.00 | 73 | 1014.2 |
| 20260508022627 | 5 | 309 | 0.0 | 1.6 | 0.00 | 0.00 | 0.00 | 74 | 1014.3 |
| 20260508022124 | 5 | 310 | 0.0 | 0.0 | 0.00 | 0.00 | 0.00 | 72 | 1014.2 |
| 20260508021620 | 5 | 309 | 0.0 | 0.0 | 0.00 | 0.00 | 0.00 | 72 | 1014.1 |
| 20260508021116 | 5 | 309 | 0.0 | 0.0 | 0.00 | 0.00 | 0.00 | 71 | 1014.3 |
| 20260508020614 | 5 | 310 | 0.0 | 0.0 | 0.00 | 0.00 | 0.00 | 73 | 1014.2 |
| 20260508020111 | 6 | 310 | 0.0 | 0.0 | 0.00 | 0.00 | 0.00 | 70 | 1014.2 |
| 20260508015609 | 6 | 310 | 0.0 | 0.0 | 0.00 | 0.00 | 0.00 | 66 | 1014.2 |
| 20260508015105 | 6 | 310 | 0.0 | 0.0 | 0.00 | 0.00 | 0.00 | 65 | 1014.0 |
| 20260508014601 | 6 | 309 | 0.0 | 0.0 | 0.00 | 0.00 | 0.00 | 63 | 1014.0 |
| 20260508014058 | 6 | 309 | 0.0 | 0.0 | 0.00 | 0.00 | 0.00 | 63 | 1014.1 |
| 20260508013554 | 7 | 310 | 0.0 | 0.0 | 0.00 | 0.00 | 0.00 | 63 | 1014.1 |
| 20260508013051 | 7 | 310 | 0.0 | 0.0 | 0.00 | 0.00 | 0.00 | 58 | 1014.2 |
| 20260508012548 | 7 | 309 | 0.0 | 0.0 | 0.00 | 0.00 | 0.00 | 54 | 1014.1 |
| 20260508012046 | 7 | 310 | 0.0 | 0.0 | 0.00 | 0.00 | 0.00 | 54 | 1014.0 |
| 20260508011544 | 7 | 310 | 0.0 | 0.0 | 0.00 | 0.00 | 0.00 | 54 | 1014.0 |
| 20260508011041 | 7 | 310 | 0.0 | 0.0 | 0.00 | 0.00 | 0.00 | 53 | 1014.1 |
| 20260508010538 | 8 | 309 | 0.0 | 0.0 | 0.00 | 0.00 | 0.00 | 50 | 1014.0 |
| 20260508010035 | 8 | 310 | 0.0 | 0.0 | 0.00 | 0.00 | 0.00 | 49 | 1014.0 |
| 20260508005532 | 8 | 310 | 0.0 | 0.0 | 0.00 | 0.00 | 0.00 | 47 | 1013.9 |
| 20260508005028 | 9 | 309 | 0.0 | 0.0 | 0.00 | 0.00 | 0.00 | 44 | 1013.8 |
| 20260508004524 | 10 | 309 | 0.0 | 1.6 | 0.00 | 0.00 | 0.00 | 43 | 1013.7 |
| 20260508004021 | 10 | 309 | 0.0 | 1.6 | 0.00 | 0.00 | 0.00 | 43 | 1013.9 |
| 20260508003518 | 10 | 309 | 0.0 | 1.6 | 0.00 | 0.00 | 0.00 | 43 | 1013.7 |
| 20260508003015 | 10 | 319 | 4.8 | 4.8 | 0.00 | 0.00 | 0.00 | 40 | 1013.7 |
| 20260508002511 | 10 | 345 | 6.4 | 8.0 | 0.00 | 0.00 | 0.00 | 40 | 1013.5 |
| 20260508002009 | 10 | 357 | 4.8 | 8.0 | 0.00 | 0.00 | 0.00 | 39 | 1013.5 |
| 20260508001504 | 11 | 352 | 3.2 | 6.4 | 0.00 | 0.00 | 0.00 | 39 | 1013.5 |
| 20260508001001 | 11 | 355 | 3.2 | 4.8 | 0.00 | 0.00 | 0.00 | 39 | 1013.5 |
| 20260508000457 | 11 | 341 | 4.8 | 6.4 | 0.00 | 0.00 | 0.00 | 37 | 1013.4 |
| 20260507235954 | 11 | 285 | 8.0 | 8.0 | 0.00 | 0.00 | 0.00 | 38 | 1013.2 |
| 20260507235450 | 11 | 332 | 1.6 | 11.3 | 0.00 | 0.00 | 0.00 | 38 | 1013.3 |
| 20260507234948 | 11 | 331 | 9.7 | 17.7 | 0.00 | 0.00 | 0.00 | 37 | 1013.1 |
| 20260507234444 | 11 | 344 | 3.2 | 12.9 | 0.00 | 0.00 | 0.00 | 37 | 1013.1 |
| 20260507233941 | 11 | 313 | 8.0 | 8.0 | 0.00 | 0.00 | 0.00 | 37 | 1013.1 |
| 20260507233438 | 11 | 295 | 8.0 | 11.3 | 0.00 | 0.00 | 0.00 | 36 | 1012.9 |
| 20260507232937 | 12 | 306 | 9.7 | 19.3 | 0.00 | 0.00 | 0.00 | 36 | 1013.0 |
| 20260507232432 | 12 | 307 | 4.8 | 11.3 | 0.00 | 0.00 | 0.00 | 38 | 1013.1 |
| 20260507231930 | 12 | 357 | 3.2 | 6.4 | 0.00 | 0.00 | 0.00 | 39 | 1013.0 |
| 20260507231426 | 12 | 300 | 6.4 | 16.1 | 0.00 | 0.00 | 0.00 | 37 | 1013.2 |
| 20260507230923 | 12 | 279 | 4.8 | 6.4 | 0.00 | 0.00 | 0.00 | 36 | 1013.2 |
| 20260507230420 | 12 | 267 | 6.4 | 6.4 | 0.00 | 0.00 | 0.00 | 37 | 1013.1 |
| 20260507225920 | 12 | 307 | 3.2 | 8.0 | 0.00 | 0.00 | 0.00 | 37 | 1012.9 |
| 20260507225417 | 12 | 249 | 11.3 | 11.3 | 0.00 | 0.00 | 0.00 | 40 | 1013.1 |
| 20260507224913 | 12 | 14 | 6.4 | 8.0 | 0.00 | 0.00 | 0.00 | 40 | 1012.9 |
| 20260507224409 | 12 | 256 | 4.8 | 8.0 | 0.00 | 0.00 | 0.00 | 42 | 1013.1 |
| 20260507223906 | 12 | 343 | 16.1 | 17.7 | 0.00 | 0.00 | 0.00 | 41 | 1013.3 |
| 20260507223402 | 12 | 335 | 8.0 | 22.5 | 0.00 | 0.00 | 0.00 | 42 | 1013.3 |
| 20260507222859 | 12 | 326 | 8.0 | 19.3 | 0.00 | 0.00 | 0.00 | 43 | 1013.3 |
| 20260507222356 | 12 | 275 | 8.0 | 29.0 | 0.00 | 0.00 | 0.00 | 44 | 1013.1 |
| 20260507221853 | 12 | 342 | 14.5 | 22.5 | 0.00 | 0.00 | 0.00 | 42 | 1013.0 |
| 20260507221349 | 12 | 292 | 9.7 | 19.3 | 0.00 | 0.00 | 0.00 | 44 | 1013.3 |
| 20260507220845 | 12 | 313 | 3.2 | 11.3 | 0.00 | 0.00 | 0.00 | 47 | 1013.0 |
| 20260507220344 | 12 | 331 | 8.0 | 30.6 | 0.00 | 0.00 | 0.00 | 47 | 1013.1 |
| 20260507215839 | 12 | 331 | 6.4 | 12.9 | 0.00 | 0.00 | 0.00 | 47 | 1012.9 |
| 20260507215336 | 12 | 315 | 9.7 | 19.3 | 0.00 | 0.00 | 0.00 | 45 | 1012.8 |
| 20260507214833 | 13 | 329 | 8.0 | 17.7 | 0.00 | 0.00 | 0.00 | 43 | 1012.5 |
| 20260507214331 | 13 | 344 | 6.4 | 19.3 | 0.00 | 0.00 | 0.00 | 41 | 1012.6 |
| 20260507213826 | 12 | 7 | 12.9 | 17.7 | 0.00 | 0.00 | 0.00 | 35 | 1012.6 |
| 20260507213323 | 13 | 273 | 17.7 | 25.7 | 0.00 | 0.00 | 0.00 | 37 | 1012.6 |
| 20260507212820 | 13 | 318 | 4.8 | 12.9 | 0.00 | 0.00 | 0.00 | 40 | 1012.5 |
| 20260507212316 | 12 | 326 | 6.4 | 8.0 | 0.00 | 0.00 | 0.00 | 41 | 1012.4 |
| 20260507211812 | 12 | 325 | 16.1 | 17.7 | 0.00 | 0.00 | 0.00 | 39 | 1012.4 |
| 20260507211309 | 13 | 325 | 11.3 | 16.1 | 0.00 | 0.00 | 0.00 | 38 | 1012.4 |
| 20260507210806 | 12 | 273 | 8.0 | 16.1 | 0.00 | 0.00 | 0.00 | 38 | 1012.3 |
| 20260507210303 | 13 | 273 | 14.5 | 24.1 | 0.00 | 0.00 | 0.00 | 38 | 1012.0 |
| 20260507205759 | 14 | 321 | 8.0 | 19.3 | 0.00 | 0.00 | 0.00 | 37 | 1012.2 |
| 20260507205257 | 15 | 321 | 4.8 | 16.1 | 0.00 | 0.00 | 0.00 | 37 | 1012.0 |
| 20260507204752 | 15 | 336 | 4.8 | 8.0 | 0.00 | 0.00 | 0.00 | 34 | 1012.0 |
| 20260507204250 | 13 | 257 | 12.9 | 22.5 | 0.00 | 0.00 | 0.00 | 36 | 1012.1 |
| 20260507203748 | 13 | 265 | 11.3 | 16.1 | 0.00 | 0.00 | 0.00 | 37 | 1011.8 |
| 20260507203245 | 13 | 284 | 6.4 | 16.1 | 0.00 | 0.00 | 0.00 | 41 | 1012.0 |
| 20260507202741 | 13 | 292 | 6.4 | 11.3 | 0.00 | 0.00 | 0.00 | 38 | 1012.0 |
| 20260507202237 | 13 | 309 | 3.2 | 16.1 | 0.00 | 0.00 | 0.00 | 40 | 1012.1 |
| 20260507201732 | 13 | 324 | 9.7 | 24.1 | 0.00 | 0.00 | 0.00 | 37 | 1012.0 |
| 20260507201230 | 14 | 300 | 6.4 | 11.3 | 0.00 | 0.00 | 0.00 | 36 | 1012.0 |
| 20260507200726 | 15 | 358 | 6.4 | 16.1 | 0.00 | 0.00 | 0.00 | 36 | 1011.9 |
| 20260507200222 | 15 | 336 | 6.4 | 8.0 | 0.00 | 0.00 | 0.00 | 35 | 1012.1 |
| 20260507195718 | 16 | 239 | 6.4 | 12.9 | 0.00 | 0.00 | 0.00 | 32 | 1011.9 |
| 20260507195216 | 15 | 301 | 11.3 | 24.1 | 0.00 | 0.00 | 0.00 | 34 | 1012.0 |
| 20260507194713 | 15 | 285 | 4.8 | 12.9 | 0.00 | 0.00 | 0.00 | 38 | 1012.1 |
| 20260507194209 | 15 | 327 | 6.4 | 25.7 | 0.00 | 0.00 | 0.00 | 38 | 1012.3 |
| 20260507193706 | 15 | 261 | 19.3 | 24.1 | 0.00 | 0.00 | 0.00 | 34 | 1012.3 |
| 20260507193202 | 15 | 245 | 8.0 | 11.3 | 0.00 | 0.00 | 0.00 | 36 | 1012.2 |
| 20260507192658 | 15 | 294 | 6.4 | 22.5 | 0.00 | 0.00 | 0.00 | 37 | 1012.3 |
| 20260507192156 | 14 | 220 | 11.3 | 25.7 | 0.00 | 0.00 | 0.00 | 36 | 1012.3 |
| 20260507191651 | 14 | 254 | 6.4 | 17.7 | 0.00 | 0.00 | 0.00 | 35 | 1012.2 |
| 20260507191148 | 14 | 283 | 12.9 | 24.1 | 0.00 | 0.00 | 0.00 | 37 | 1012.4 |
| 20260507190645 | 13 | 294 | 8.0 | 11.3 | 0.00 | 0.00 | 0.00 | 39 | 1012.3 |
| 20260507190144 | 13 | 261 | 11.3 | 19.3 | 0.00 | 0.00 | 0.00 | 37 | 1012.4 |
| 20260507185642 | 13 | 249 | 16.1 | 19.3 | 0.00 | 0.00 | 0.00 | 36 | 1012.4 |
| 20260507185138 | 13 | 268 | 8.0 | 25.7 | 0.00 | 0.00 | 0.00 | 35 | 1012.5 |
| 20260507184636 | 14 | 258 | 8.0 | 17.7 | 0.00 | 0.00 | 0.00 | 36 | 1012.3 |
| 20260507184134 | 15 | 235 | 8.0 | 8.0 | 0.00 | 0.00 | 0.00 | 37 | 1012.3 |
| 20260507183630 | 13 | 0 | 8.0 | 22.5 | 0.00 | 0.00 | 0.00 | 37 | 1012.3 |
| 20260507183127 | 13 | 292 | 6.4 | 8.0 | 0.00 | 0.00 | 0.00 | 37 | 1012.5 |
| 20260507182624 | 13 | 339 | 4.8 | 19.3 | 0.00 | 0.00 | 0.00 | 37 | 1012.5 |
| 20260507182120 | 13 | 296 | 6.4 | 12.9 | 0.00 | 0.00 | 0.00 | 35 | 1012.4 |
| 20260507181616 | 13 | 331 | 4.8 | 8.0 | 0.00 | 0.00 | 0.00 | 40 | 1012.7 |
| 20260507181113 | 13 | 323 | 4.8 | 16.1 | 0.00 | 0.00 | 0.00 | 38 | 1012.6 |
| 20260507180609 | 13 | 292 | 8.0 | 24.1 | 0.00 | 0.00 | 0.00 | 38 | 1012.4 |
| 20260507180107 | 13 | 265 | 6.4 | 24.1 | 0.00 | 0.00 | 0.00 | 37 | 1012.4 |
| 20260507175602 | 13 | 318 | 6.4 | 12.9 | 0.00 | 0.00 | 0.00 | 36 | 1012.5 |
| 20260507175100 | 13 | 244 | 8.0 | 12.9 | 0.00 | 0.00 | 0.00 | 36 | 1012.7 |
| 20260507174557 | 13 | 282 | 4.8 | 12.9 | 0.00 | 0.00 | 0.00 | 39 | 1012.6 |
| 20260507174055 | 14 | 284 | 6.4 | 8.0 | 0.00 | 0.00 | 0.00 | 35 | 1012.4 |
| 20260507173551 | 14 | 277 | 1.6 | 6.4 | 0.00 | 0.00 | 0.00 | 38 | 1012.6 |
| 20260507173049 | 13 | 262 | 8.0 | 12.9 | 0.00 | 0.00 | 0.00 | 37 | 1012.6 |
| 20260507172544 | 14 | 275 | 9.7 | 12.9 | 0.00 | 0.00 | 0.00 | 36 | 1012.6 |
| 20260507172042 | 13 | 213 | 3.2 | 12.9 | 0.00 | 0.00 | 0.00 | 39 | 1012.6 |
| 20260507171536 | 12 | 341 | 4.8 | 6.4 | 0.00 | 0.00 | 0.00 | 36 | 1012.8 |
| 20260507171034 | 13 | 15 | 4.8 | 12.9 | 0.00 | 0.00 | 0.00 | 39 | 1012.7 |
| 20260507170531 | 13 | 291 | 6.4 | 12.9 | 0.00 | 0.00 | 0.00 | 39 | 1012.9 |
| 20260507170028 | 13 | 294 | 6.4 | 11.3 | 0.00 | 0.00 | 0.00 | 39 | 1012.8 |
| 20260507165523 | 13 | 266 | 8.0 | 19.3 | 0.00 | 0.00 | 0.00 | 39 | 1012.9 |
| 20260507165020 | 13 | 295 | 6.4 | 11.3 | 0.00 | 0.00 | 0.00 | 37 | 1012.9 |
| 20260507164516 | 13 | 280 | 3.2 | 11.3 | 0.00 | 0.00 | 0.00 | 41 | 1012.8 |
| 20260507164014 | 13 | 305 | 4.8 | 19.3 | 0.00 | 0.00 | 0.00 | 39 | 1013.0 |
| 20260507163510 | 13 | 8 | 3.2 | 16.1 | 0.00 | 0.00 | 0.00 | 40 | 1012.9 |
| 20260507163009 | 13 | 301 | 1.6 | 6.4 | 0.00 | 0.00 | 0.00 | 36 | 1012.9 |
| 20260507162503 | 13 | 292 | 3.2 | 8.0 | 0.00 | 0.00 | 0.00 | 38 | 1013.1 |
| 20260507162000 | 13 | 289 | 1.6 | 6.4 | 0.00 | 0.00 | 0.00 | 38 | 1012.8 |
| 20260507161456 | 13 | 289 | 6.4 | 22.5 | 0.00 | 0.00 | 0.00 | 42 | 1013.1 |
| 20260507160954 | 13 | 245 | 11.3 | 17.7 | 0.00 | 0.00 | 0.00 | 38 | 1012.8 |
| 20260507160449 | 12 | 226 | 9.7 | 12.9 | 0.00 | 0.00 | 0.00 | 42 | 1013.0 |
| 20260507155945 | 13 | 212 | 6.4 | 11.3 | 0.00 | 0.00 | 0.00 | 39 | 1013.1 |
| 20260507155441 | 12 | 249 | 4.8 | 8.0 | 0.00 | 0.00 | 0.00 | 39 | 1013.1 |
| 20260507154939 | 12 | 217 | 6.4 | 8.0 | 0.00 | 0.00 | 0.00 | 41 | 1013.0 |
| 20260507154435 | 13 | 249 | 14.5 | 19.3 | 0.00 | 0.00 | 0.00 | 41 | 1013.2 |
| 20260507153932 | 13 | 273 | 11.3 | 16.1 | 0.00 | 0.00 | 0.00 | 38 | 1013.2 |
| 20260507153429 | 13 | 270 | 11.3 | 16.1 | 0.00 | 0.00 | 0.00 | 38 | 1013.3 |
| 20260507152925 | 14 | 306 | 6.4 | 11.3 | 0.00 | 0.00 | 0.00 | 36 | 1013.2 |
| 20260507152422 | 13 | 320 | 6.4 | 8.0 | 0.00 | 0.00 | 0.00 | 41 | 1013.2 |
| 20260507151917 | 13 | 89 | 3.2 | 12.9 | 0.00 | 0.00 | 0.00 | 42 | 1013.2 |
| 20260507151414 | 13 | 332 | 6.4 | 6.4 | 0.00 | 0.00 | 0.00 | 42 | 1013.3 |
| 20260507150911 | 12 | 213 | 1.6 | 6.4 | 0.00 | 0.00 | 0.00 | 46 | 1013.3 |
| 20260507150408 | 12 | 334 | 4.8 | 4.8 | 0.00 | 0.00 | 0.00 | 46 | 1013.3 |
| 20260507145905 | 12 | 298 | 1.6 | 8.0 | 0.00 | 0.00 | 0.00 | 50 | 1013.2 |
| 20260507145400 | 12 | 288 | 8.0 | 11.3 | 0.00 | 0.00 | 0.00 | 45 | 1013.2 |
| 20260507144858 | 12 | 276 | 4.8 | 19.3 | 0.00 | 0.00 | 0.00 | 50 | 1013.3 |
| 20260507144355 | 12 | 253 | 9.7 | 16.1 | 0.00 | 0.00 | 0.00 | 48 | 1013.3 |
| 20260507143851 | 12 | 252 | 12.9 | 16.1 | 0.00 | 0.00 | 0.00 | 48 | 1013.7 |
| 20260507143349 | 12 | 345 | 3.2 | 8.0 | 0.00 | 0.00 | 0.00 | 51 | 1013.4 |
| 20260507142845 | 11 | 268 | 3.2 | 6.4 | 0.00 | 0.00 | 0.00 | 51 | 1013.4 |
| 20260507142341 | 12 | 255 | 11.3 | 16.1 | 0.00 | 0.00 | 0.00 | 52 | 1013.5 |
| 20260507141838 | 11 | 279 | 3.2 | 6.4 | 0.00 | 0.00 | 0.00 | 53 | 1013.7 |
| 20260507141335 | 11 | 231 | 8.0 | 11.3 | 0.00 | 0.00 | 0.00 | 56 | 1013.7 |
| 20260507140831 | 11 | 163 | 6.4 | 16.1 | 0.00 | 0.00 | 0.00 | 54 | 1013.5 |
| 20260507140328 | 11 | 288 | 3.2 | 6.4 | 0.00 | 0.00 | 0.00 | 57 | 1013.8 |
| 20260507135826 | 11 | 170 | 3.2 | 8.0 | 0.00 | 0.00 | 0.00 | 57 | 1013.8 |
| 20260507135322 | 11 | 125 | 1.6 | 6.4 | 0.00 | 0.00 | 0.00 | 58 | 1014.1 |
| 20260507134820 | 11 | 270 | 4.8 | 6.4 | 0.00 | 0.00 | 0.00 | 60 | 1013.8 |
| 20260507134316 | 10 | 246 | 4.8 | 6.4 | 0.00 | 0.00 | 0.00 | 59 | 1014.1 |
| 20260507133811 | 10 | 177 | 3.2 | 8.0 | 0.00 | 0.00 | 0.00 | 60 | 1014.0 |
| 20260507133308 | 10 | 251 | 3.2 | 6.4 | 0.00 | 0.00 | 0.00 | 62 | 1014.3 |
| 20260507132806 | 10 | 238 | 4.8 | 4.8 | 0.00 | 0.00 | 0.00 | 62 | 1014.1 |
| 20260507132306 | 10 | 284 | 1.6 | 4.8 | 0.00 | 0.00 | 0.00 | 62 | 1014.1 |
| 20260507131759 | 10 | 263 | 3.2 | 4.8 | 0.00 | 0.00 | 0.00 | 63 | 1014.2 |
| 20260507131256 | 10 | 222 | 4.8 | 6.4 | 0.00 | 0.00 | 0.00 | 62 | 1014.1 |
| 20260507130753 | 10 | 234 | 3.2 | 4.8 | 0.00 | 0.00 | 0.00 | 64 | 1014.1 |
| 20260507130251 | 10 | 289 | 3.2 | 6.4 | 0.00 | 0.00 | 0.00 | 63 | 1014.2 |
| 20260507125749 | 10 | 269 | 3.2 | 4.8 | 0.00 | 0.00 | 0.00 | 63 | 1014.2 |
| 20260507125246 | 9 | 241 | 4.8 | 8.0 | 0.00 | 0.00 | 0.00 | 62 | 1014.1 |
| 20260507124743 | 9 | 300 | 1.6 | 8.0 | 0.00 | 0.00 | 0.00 | 62 | 1014.0 |
| 20260507124240 | 9 | 246 | 3.2 | 6.4 | 0.00 | 0.00 | 0.00 | 64 | 1014.1 |
| 20260507123738 | 9 | 251 | 6.4 | 8.0 | 0.00 | 0.00 | 0.00 | 62 | 1014.0 |
| 20260507123236 | 9 | 207 | 6.4 | 6.4 | 0.00 | 0.00 | 0.00 | 64 | 1014.1 |
| 20260507122731 | 9 | 217 | 3.2 | 11.3 | 0.00 | 0.00 | 0.00 | 64 | 1014.0 |
| 20260507122227 | 9 | 218 | 12.9 | 12.9 | 0.00 | 0.00 | 0.00 | 65 | 1013.9 |
| 20260507121722 | 8 | 190 | 6.4 | 11.3 | 0.00 | 0.00 | 0.00 | 66 | 1014.0 |
| 20260507121218 | 8 | 226 | 3.2 | 4.8 | 0.00 | 0.00 | 0.00 | 68 | 1014.0 |
| 20260507120715 | 8 | 152 | 3.2 | 4.8 | 0.00 | 0.00 | 0.00 | 71 | 1014.0 |
| 20260507120212 | 8 | 173 | 1.6 | 4.8 | 0.00 | 0.00 | 0.00 | 71 | 1014.0 |
| 20260507115708 | 7 | 240 | 0.0 | 6.4 | 0.00 | 0.00 | 0.00 | 74 | 1014.1 |
| 20260507115204 | 6 | 239 | 0.0 | 4.8 | 0.00 | 0.00 | 0.00 | 75 | 1014.2 |
| 20260507114659 | 6 | 239 | 0.0 | 1.6 | 0.00 | 0.00 | 0.00 | 77 | 1014.2 |
| 20260507114157 | 6 | 222 | 3.2 | 4.8 | 0.00 | 0.00 | 0.00 | 78 | 1014.1 |
| 20260507113654 | 6 | 220 | 3.2 | 4.8 | 0.00 | 0.00 | 0.00 | 77 | 1014.2 |
| 20260507113151 | 6 | 233 | 1.6 | 4.8 | 0.00 | 0.00 | 0.00 | 78 | 1014.0 |
| 20260507112649 | 6 | 254 | 3.2 | 6.4 | 0.00 | 0.00 | 0.00 | 78 | 1014.1 |
| 20260507112145 | 6 | 228 | 3.2 | 4.8 | 0.00 | 0.00 | 0.00 | 79 | 1014.1 |
| 20260507111643 | 6 | 223 | 3.2 | 4.8 | 0.00 | 0.00 | 0.00 | 81 | 1014.0 |
| 20260507111139 | 5 | 227 | 0.0 | 4.8 | 0.00 | 0.00 | 0.00 | 82 | 1014.0 |
| 20260507110636 | 5 | 219 | 0.0 | 1.6 | 0.00 | 0.00 | 0.00 | 83 | 1013.9 |
| 20260507110133 | 5 | 226 | 1.6 | 1.6 | 0.00 | 0.00 | 0.00 | 84 | 1014.1 |
| 20260507105629 | 5 | 225 | 0.0 | 1.6 | 0.00 | 0.00 | 0.00 | 86 | 1013.9 |
| 20260507105125 | 5 | 225 | 0.0 | 0.0 | 0.00 | 0.00 | 0.00 | 87 | 1013.8 |
| 20260507104623 | 4 | 225 | 0.0 | 0.0 | 0.00 | 0.00 | 0.00 | 88 | 1013.8 |
| 20260507104119 | 4 | 224 | 0.0 | 1.6 | 0.00 | 0.00 | 0.00 | 89 | 1013.9 |
| 20260507103615 | 4 | 224 | 0.0 | 0.0 | 0.00 | 0.00 | 0.00 | 88 | 1013.7 |
| 20260507103112 | 3 | 225 | 0.0 | 1.6 | 0.00 | 0.00 | 0.00 | 89 | 1013.5 |
| 20260507102609 | 3 | 227 | 0.0 | 1.6 | 0.00 | 0.00 | 0.00 | 90 | 1013.7 |
| 20260507102105 | 3 | 227 | 0.0 | 0.0 | 0.00 | 0.00 | 0.00 | 90 | 1013.8 |
| 20260507101601 | 3 | 228 | 0.0 | 0.0 | 0.00 | 0.00 | 0.00 | 90 | 1013.7 |
| 20260507101057 | 4 | 227 | 0.0 | 0.0 | 0.00 | 0.00 | 0.00 | 90 | 1013.8 |
| 20260507100554 | 4 | 262 | 0.0 | 1.6 | 0.00 | 0.00 | 0.00 | 91 | 1013.5 |
| 20260507100052 | 3 | 262 | 1.6 | 1.6 | 0.00 | 0.00 | 0.00 | 93 | 1013.5 |
| 20260507095550 | 3 | 262 | 3.2 | 4.8 | 0.00 | 0.00 | 0.00 | 95 | 1013.7 |
| 20260507095046 | 3 | 205 | 0.0 | 1.6 | 0.00 | 0.00 | 0.00 | 96 | 1013.5 |
| 20260507094542 | 3 | 111 | 1.6 | 1.6 | 0.00 | 0.00 | 0.00 | 97 | 1013.4 |
| 20260507094040 | 3 | 104 | 1.6 | 1.6 | 0.00 | 0.00 | 0.00 | 97 | 1013.5 |
| 20260507093537 | 3 | 78 | 0.0 | 0.0 | 0.00 | 0.00 | 0.00 | 97 | 1013.4 |
| 20260507093036 | 3 | 79 | 0.0 | 1.6 | 0.00 | 0.00 | 0.00 | 97 | 1013.7 |
| 20260507092532 | 2 | 72 | 0.0 | 0.0 | 0.00 | 0.00 | 0.00 | 97 | 1013.8 |
| 20260507092029 | 2 | 72 | 0.0 | 1.6 | 0.00 | 0.00 | 0.00 | 97 | 1013.7 |
| 20260507091525 | 2 | 72 | 0.0 | 0.0 | 0.00 | 0.00 | 0.00 | 97 | 1013.7 |
| 20260507091021 | 2 | 72 | 0.0 | 0.0 | 0.00 | 0.00 | 0.00 | 97 | 1013.7 |
| 20260507090517 | 2 | 72 | 0.0 | 0.0 | 0.00 | 0.00 | 0.00 | 97 | 1013.8 |
| 20260507090014 | 2 | 72 | 0.0 | 0.0 | 0.00 | 0.00 | 0.00 | 97 | 1013.8 |
| 20260507085511 | 2 | 72 | 0.0 | 0.0 | 0.00 | 0.00 | 0.00 | 97 | 1013.7 |
| 20260507085008 | 2 | 72 | 0.0 | 0.0 | 0.00 | 0.00 | 0.00 | 97 | 1014.0 |
| 20260507084505 | 2 | 72 | 0.0 | 0.0 | 0.00 | 0.00 | 0.00 | 97 | 1013.9 |
| 20260507084002 | 2 | 72 | 0.0 | 0.0 | 0.00 | 0.00 | 0.00 | 97 | 1013.8 |